Погода в Меловом

Украина / Луганская область     49°22′38″N   40°07′51″E
темп.,
°C
ветер,
м/с
пор.,
м/с
влажн.,
%
обл.,
%
осадки,
мм/ч
давл.,
гПа
погр.,
м
18 мая, вт
вт1800:00+17ююв1169100 0.0 100714
03:00+15ссз229098 0.0 100718
06:00+16ю227867 0.0 100684
09:00+20юз4573100 0.0 1006723
12:00+21юз5569100 0.0 10061134
15:00+18юз5678100 0.8 1007509
18:00+15ю3695100 4.4 1007250
21:00+15ю499193 4.4 1008275
19 мая, ср
ср1900:00+12ю410930 0.0 1008226
03:00+12ю389287 0.0 1008155
06:00+13юв249035 0.0 1009119
09:00+16юв5879100 0.0 1008574
12:00+14ююв41095100 5.1 1008625
15:00+12юз61085100 9.6 1009438
18:00+14ю5882100 0.4 1009781
21:00+12ююв512932 0.6 1009377
20 мая, чт
чт2000:00+11ю5129494 0.0 1009450
03:00+12ююв6129599 0.2 1008590
06:00+13ю7119385 0.4 1008614
09:00+13юз6983100 0.6 1009873
12:00+13ююз6890100 0.3 1011605
15:00+16юз687561 0.5 10111046
18:00+17юз587424 0.1 10111048
21:00+12юз3691100 0.2 1012106
21 мая, пт
пт2100:00+11ююз359145 0.0 101383
03:00+11юз3390100 0.0 101438
06:00+13з238568 0.0 101583
09:00+18вюв2266100 0.0 1015553
12:00+21вюв455295 0.0 10151151
15:00+22вюв5656100 0.0 10131061
18:00+18вюв4979100 0.1 1013183
21:00+17всв41072100 0.1 1013159
22 мая, сб
сб2200:00+17всв61669100 0.1 1012368
03:00+15всв5127570 0.1 1011216
06:00+15всв5107876 0.0 1011254
09:00+20вюв685612 0.0 1010645
12:00+24юв5651100 0.0 10101011
15:00+26юв3449100 0.0 10101239
18:00+26всв2262100 0.0 100933
21:00+21ссв2270100 0.0 101014